Location: Brest
(52.1000°N, 23.7000°E)
Time: 12:54:14
(UTC+02:00)

GENESIS II - Visible Passes

Search period start: 23 March 2019 00:00
Search period end: 02 April 2019 01:00
Orbit: 484 x 546 km, 64.5° (Epoch: 22 March)

Date Brightness Start Highest point End Pass type
(mag) Time Alt. Az. Time Alt. Az. Time Alt. Az.
23 Mar 6.7 20:13:09 10° NNW 20:15:38 15° N 20:18:08 10° NE visible
23 Mar 6.0 21:50:46 10° NNW 21:53:38 29° N 21:53:38 29° N visible
23 Mar 7.4 23:28:22 10° NW 23:28:36 11° NW 23:28:36 11° NW visible
24 Mar 6.7 19:57:15 10° NNW 19:59:45 15° N 20:02:15 10° NE visible
24 Mar 5.7 21:34:52 10° NNW 21:38:12 31° NNE 21:38:12 31° NNE visible
24 Mar 7.2 23:12:28 10° NW 23:13:10 15° NW 23:13:10 15° NW visible
25 Mar 6.6 19:41:22 10° NNW 19:43:51 15° N 19:46:22 10° NE visible
25 Mar 5.5 21:18:58 10° NNW 21:22:41 32° NNE 21:22:47 32° NE visible
25 Mar 6.9 22:56:34 10° NW 22:57:45 18° NW 22:57:45 18° NW visible
26 Mar 6.6 19:25:28 10° NNW 19:27:59 16° N 19:30:29 10° NE visible
26 Mar 5.4 21:03:04 10° NNW 21:06:47 32° NNE 21:07:23 31° NE visible
26 Mar 6.5 22:40:41 10° NW 22:42:21 23° WNW 22:42:21 23° WNW visible
27 Mar 5.4 20:47:10 10° NNW 20:50:54 33° NNE 20:52:00 28° ENE visible
27 Mar 6.1 22:24:47 10° NW 22:26:59 29° WNW 22:26:59 29° WNW visible
28 Mar 5.4 20:31:15 10° NNW 20:35:00 33° NNE 20:36:39 24° ENE visible
28 Mar 5.7 22:08:53 10° NW 22:11:37 36° WNW 22:11:37 36° WNW visible
29 Mar 5.4 20:15:21 10° NNW 20:19:06 33° NNE 20:21:19 20° E visible
29 Mar 5.2 21:52:59 10° NW 21:56:18 45° W 21:56:18 45° W visible
30 Mar 5.3 19:59:26 10° NNW 20:03:12 34° NNE 20:06:02 15° E visible
30 Mar 4.9 21:37:04 10° NW 21:41:01 49° WSW 21:41:01 49° WSW visible
31 Mar 5.3 20:43:32 10° NNW 20:47:18 34° NNE 20:50:47 12° E visible
31 Mar 4.8 22:21:11 10° NW 22:25:09 48° SW 22:25:46 44° SSW visible
01 Apr 5.3 20:27:37 10° NNW 20:31:24 34° NNE 20:35:10 10° E visible
01 Apr 5.0 22:05:17 10° NW 22:09:14 47° SW 22:10:34 34° S visible
